TimeEDT,TemperatureF,Dew PointF,Humidity,Sea Level PressureIn,VisibilityMPH,Wind Direction,Wind SpeedMPH,Gust SpeedMPH,PrecipitationIn,Events,Conditions,WindDirDegrees,DateUTC
12:52 AM,55.0,51.1,86,29.38,10.0,SSW,11.5,-,0.00,Rain,Light Rain,210,2011-10-15 04:52:00
1:52 AM,55.0,48.9,80,29.41,10.0,SW,10.4,16.1,0.00,,Overcast,230,2011-10-15 05:52:00
2:52 AM,54.0,50.0,86,29.43,10.0,WSW,6.9,-,0.01,Rain,Light Rain,240,2011-10-15 06:52:00
3:25 AM,53.6,51.8,94,29.44,10.0,SW,9.2,-,0.01,Rain,Light Rain,220,2011-10-15 07:25:00
3:38 AM,53.6,50.0,88,29.44,10.0,SW,9.2,19.6,0.02,Rain,Light Rain,220,2011-10-15 07:38:00
3:52 AM,53.1,48.9,86,29.44,10.0,SSW,11.5,-,0.02,,Scattered Clouds,210,2011-10-15 07:52:00
4:52 AM,52.0,48.0,86,29.47,10.0,SW,10.4,-,N/A,,Clear,220,2011-10-15 08:52:00
5:52 AM,51.1,46.0,83,29.49,10.0,SSW,12.7,-,N/A,,Clear,210,2011-10-15 09:52:00
7:52 AM,50.0,44.1,80,29.53,10.0,South,9.2,-,N/A,,Clear,190,2011-10-15 11:52:00
8:52 AM,52.0,45.0,77,29.54,10.0,SSW,11.5,18.4,N/A,,Clear,200,2011-10-15 12:52:00
9:52 AM,55.0,45.0,69,29.55,10.0,SSW,10.4,24.2,N/A,,Partly Cloudy,200,2011-10-15 13:52:00
10:52 AM,57.0,44.1,62,29.55,10.0,SSW,19.6,28.8,N/A,,Partly Cloudy,200,2011-10-15 14:52:00
1:52 PM,60.1,39.9,47,29.52,10.0,SW,17.3,31.1,N/A,,Mostly Cloudy,230,2011-10-15 17:52:00
2:52 PM,60.1,39.0,46,29.52,10.0,SW,20.7,32.2,N/A,,Partly Cloudy,230,2011-10-15 18:52:00
3:34 PM,51.8,44.6,76,29.54,10.0,SSW,13.8,23.0,0.01,Rain-Thunderstorm,Light Rain,210,2011-10-15 19:34:00
3:52 PM,53.1,44.1,71,29.54,10.0,SSW,11.5,20.7,0.01,,Mostly Cloudy,210,2011-10-15 19:52:00
4:52 PM,53.1,45.0,74,29.56,10.0,South,5.8,-,N/A,,Mostly Cloudy,190,2011-10-15 20:52:00
5:52 PM,55.0,42.1,62,29.56,10.0,SSW,15.0,25.3,N/A,,Scattered Clouds,210,2011-10-15 21:52:00
6:52 PM,54.0,39.0,57,29.58,10.0,SSW,16.1,25.3,N/A,,Scattered Clouds,200,2011-10-15 22:52:00
8:52 PM,54.0,37.9,55,29.62,10.0,SSW,10.4,-,N/A,,Mostly Cloudy,200,2011-10-16 00:52:00
9:52 PM,55.0,36.0,49,29.63,10.0,SW,15.0,27.6,N/A,,Scattered Clouds,220,2011-10-16 01:52:00
10:52 PM,53.1,37.0,55,29.64,10.0,SSW,12.7,-,N/A,,Partly Cloudy,200,2011-10-16 02:52:00
11:52 PM,53.1,36.0,52,29.65,10.0,SSW,13.8,-,N/A,,Overcast,210,2011-10-16 03:52:00